Location: Bakov nad Jizerou
(50.4784°N, 14.9394°E)
Time: 21:56:05
(UTC+00:00)

IRIDIUM 33 DEB - Pass Details

Date: 05 February 2022
Orbit: 575 x 614 km, 86.4° (Epoch: 21 May)

Event Time Altitude Azimuth Distance (km) Brightness Sun altitude
Rises 16:43:03 0° 4° (N) 2,937 ? -7.3°
Reaches altitude 10° 16:45:37 10° 16° (NNE) 1,995 ? -7.7°
Maximum altitude 16:49:21 27° 75° (ENE) 1,173 ? -8.2°
Drops below altitude 10° 16:52:56 10° 134° (SE) 1,915 ? -8.8°
Sets 16:55:21 0° 147° (SSE) 2,794 ? -9.2°
